DISCOBAY Weather Reports


time (UTC)temp
C
wind
direction
speed
KPH
gust
KPH
rain 1hr
cm
rain 24hr
cm
rain mn
cm
humidity
%
barometer
mb
20260503224554 24 257 1.6 8.0 0.00 0.00 0.00 38 1012.5
20260503223052 24 5 1.6 6.4 0.00 0.00 0.00 39 1012.8
20260503221552 24 267 1.6 6.4 0.00 0.00 0.00 40 1013.0
20260503220058 23 13 1.6 8.0 0.00 0.00 0.00 39 1013.3
20260503214555 23 352 1.6 8.0 0.00 0.00 0.00 39 1013.4
20260503213059 23 350 1.6 6.4 0.00 0.00 0.00 38 1013.6
20260503211556 23 338 1.6 6.4 0.00 0.00 0.00 37 1013.7
20260503210054 23 271 1.6 14.5 0.00 0.00 0.00 37 1014.0
20260503204556 23 349 1.6 11.3 0.00 0.00 0.00 39 1014.0
20260503203101 23 330 0.0 6.4 0.00 0.00 0.00 38 1013.9
20260503201600 22 261 4.8 11.3 0.00 0.00 0.00 41 1014.0
20260503200057 22 15 1.6 6.4 0.00 0.00 0.00 41 1014.1
20260503194558 22 0 1.6 6.4 0.00 0.00 0.00 42 1014.3
20260503193056 22 0 0.0 6.4 0.00 0.00 0.00 43 1014.6
20260503191555 21 352 1.6 6.4 0.00 0.00 0.00 44 1014.7
20260503190053 21 360 1.6 6.4 0.00 0.00 0.00 45 1014.7
20260503184611 20 343 0.0 6.4 0.00 0.00 0.00 48 1014.9
20260503183057 20 352 3.2 8.0 0.00 0.00 0.00 49 1014.9
20260503181558 20 0 3.2 6.4 0.00 0.00 0.00 51 1015.1
20260503180057 18 262 3.2 11.3 0.00 0.00 0.00 57 1015.3
20260503173058 18 0 1.6 6.4 0.00 0.00 0.00 58 1015.4
20260503171610 17 45 3.2 9.7 0.00 0.00 0.00 59 1015.4
20260503110112 17 296 1.6 4.8 0.00 0.00 0.00 53 1015.5
20260503100108 17 296 1.6 4.8 0.00 0.00 0.00 54 1015.4
20260503090120 15 295 1.6 4.8 0.00 0.00 0.00 68 1015.3
20260503081555 16 0 0.0 3.2 0.00 0.00 0.00 59 1015.3
20260503071608 18 0 0.0 1.6 0.00 0.00 0.00 49 1015.2
20260503060103 20 295 1.6 4.8 0.00 0.00 0.00 45 1015.1
20260503054602 20 295 1.6 4.8 0.00 0.00 0.00 44 1015.1
20260503053051 20 294 1.6 4.8 0.00 0.00 0.00 44 1015.3
20260503051551 20 292 1.6 4.8 0.00 0.00 0.00 43 1015.2
20260503050055 20 292 1.6 4.8 0.00 0.00 0.00 43 1015.1
20260503044556 20 288 1.6 4.8 0.00 0.00 0.00 44 1015.1
20260503043057 20 0 0.0 3.2 0.00 0.00 0.00 43 1015.1
20260503041551 20 288 1.6 4.8 0.00 0.00 0.00 44 1015.0
20260503040057 20 288 0.0 3.2 0.00 0.00 0.00 44 1014.8
20260503034551 20 288 0.0 4.8 0.00 0.00 0.00 44 1014.7
20260503033054 20 319 0.0 6.4 0.00 0.00 0.00 44 1014.5
20260503031554 20 352 1.6 4.8 0.00 0.00 0.00 45 1014.4
20260503030059 21 21 0.0 4.8 0.00 0.00 0.00 45 1014.4
20260503024555 21 0 1.6 4.8 0.00 0.00 0.00 45 1014.3
20260503023104 21 22 0.0 8.0 0.00 0.00 0.00 44 1014.3
20260503021605 21 342 1.6 6.4 0.00 0.00 0.00 44 1014.4
20260503020057 21 0 1.6 4.8 0.00 0.00 0.00 45 1014.5
20260503014558 21 5 1.6 6.4 0.00 0.00 0.00 44 1014.7
20260503013100 21 0 1.6 6.4 0.00 0.00 0.00 45 1014.8
20260503011608 21 5 1.6 6.4 0.00 0.00 0.00 45 1015.0
20260503010058 21 360 3.2 6.4 0.00 0.00 0.00 44 1014.9
20260503004553 21 331 1.6 6.4 0.00 0.00 0.00 43 1015.0
20260503003054 22 0 1.6 6.4 0.00 0.00 0.00 43 1015.1
20260503001552 22 22 0.0 6.4 0.00 0.00 0.00 42 1015.1
20260503000103 22 0 1.6 6.4 0.00 0.00 0.00 42 1015.2
20260502234602 22 343 1.6 6.4 0.00 0.00 0.00 41 1015.3
20260502233052 22 348 1.6 11.3 0.00 0.00 0.00 40 1015.5
20260502231559 22 258 4.8 14.5 0.00 0.00 0.00 39 1015.6
20260502230056 22 258 3.2 11.3 0.00 0.00 0.00 40 1015.9